This is the latest recevied weather packets stored in our database for station/object DL2AMT-9. If no packets are shown the sender has not sent any weather packets the latest 1 day(s).
| Time | Temp. | Humidity | Pressure | Rain* | Wind** | Luminosity | Snow |
|---|---|---|---|---|---|---|---|
| 1778096192 | 28.89° C | 37% | 961.5 hPa | - | - | - | - |
| 1778095892 | 28.89° C | 38% | 961.5 hPa | - | - | - | - |
| 1778091091 | 29.44° C | 37% | 960.1 hPa | - | - | - | - |
| 1778090791 | 29.44° C | 37% | 960.1 hPa | - | - | - | - |
| 1778090491 | 29.44° C | 37% | 960 hPa | - | - | - | - |
| 1778089891 | 29.44° C | 37% | 960.1 hPa | - | - | - | - |
| 1778089591 | 29.44° C | 37% | 960.2 hPa | - | - | - | - |
| 1778089291 | 29.44° C | 37% | 960.1 hPa | - | - | - | - |
| 1778088991 | 29.44° C | 37% | 960.1 hPa | - | - | - | - |
| 1778088691 | 29.44° C | 36% | 960 hPa | - | - | - | - |
| 1778088391 | 30° C | 37% | 960 hPa | - | - | - | - |
| 1778088091 | 30° C | 36% | 960 hPa | - | - | - | - |
| 1778087791 | 29.44° C | 37% | 960 hPa | - | - | - | - |
| 1778083890 | 28.89° C | 37% | 960.2 hPa | - | - | - | - |
| 1778083590 | 28.89° C | 37% | 960.3 hPa | - | - | - | - |
| 1778082389 | 26.67° C | 34% | 960 hPa | - | - | - | - |
| 1778082089 | 28.33° C | 33% | 960 hPa | - | - | - | - |
| 1778081789 | 30.56° C | 34% | 960 hPa | - | - | - | - |
| 1778079988 | 27.22° C | 38% | 959.9 hPa | - | - | - | - |
| 1778079688 | 25° C | 36% | 960 hPa | - | - | - | - |
| 1778079388 | 25° C | 35% | 960 hPa | - | - | - | - |
| 1778078788 | 26.67° C | 34% | 960 hPa | - | - | - | - |
| 1778077887 | 28.89° C | 32% | 960 hPa | - | - | - | - |
| 1778076377 | 28.33° C | 37% | 959.7 hPa | - | - | - | - |
| 1778076077 | 27.78° C | 38% | 959.8 hPa | - | - | - | - |
* Rain since midnight (hover to see other rain measurements)
** Current wind speed in m/s (hover to see current wind gust speed)